Flag for U.S.A. Weather past 2 weeks in Greenville, South Carolina, U.S.A.

Now
35 °F

Sunny.


Feels Like: 32 °F
Forecast: 31 / 55 °F
Wind: 3 mph from West

Location: Greenville Downtown Airport

Current Time: Jan 25, 2015 at 9:58:50 AM

Latest Report: Jan 25, 2015 at 8:53 AM


Visibility: 10 mi

Pressure: 29.94 "Hg

Humidity: 72%

Dew point: 27 °F

Location of GreenvilleLocation

Historic Weather in Greenville — Graph

°F

Greenville temperature yesterday

Maximum temperature yesterday: 55 °F (at 3:53 PM)
Minimum temperature yesterday: 37 °F (at 11:53 PM)
Average temperature yesterday: 43 °F

Past Weeks' High & Low Weather Summary

 TemperatureHumidityPressure
High68 °F (Jan 20, 1:53 PM)97% (Jan 12, 6:53 AM)30.63 "Hg (Jan 12, 6:53 AM)
Low25 °F (Jan 11, 12:53 AM)17% (Jan 21, 4:53 PM)29.63 "Hg (Jan 24, 5:04 AM)
Average44 °F61%30.15 "Hg
* Reported Jan 10 8:53 AM — Jan 25 8:53 AM, Greenville, Weather by CustomWeather, © 2014

Note: Actual official high and low records may vary slightly from our data, if they occured in-between our weather recording intervals... More about our weather records

Advertising

Greenville weather history for previous 24 hours

 ConditionsComfort  
Time TempWeatherWind HumidityBarometerVisibility
8:53 AM
Jan 25
35 °FSunny.3 mph72%29.94 "Hg10 mi
7:53 AM30 °FSunny.No wind82%29.94 "Hg10 mi
6:53 AM30 °FClear.No wind79%29.93 "Hg10 mi
5:53 AM31 °FClear.No wind79%29.93 "Hg10 mi
4:53 AM31 °FClear.3 mph76%29.92 "Hg10 mi
3:53 AM34 °FClear.No wind67%29.89 "Hg10 mi
2:53 AM34 °FClear.5 mph67%29.91 "Hg10 mi
1:53 AM35 °FClear.3 mph64%29.90 "Hg10 mi
12:53 AM37 °FClear.5 mph60%29.89 "Hg10 mi
11:53 PM
Jan 24
37 °FClear.7 mph60%29.88 "Hg10 mi
10:53 PM38 °FClear.9 mph58%29.87 "Hg10 mi
9:53 PM40 °FClear.9 mph53%29.86 "Hg10 mi
8:53 PM41 °FClear.12 mph51%29.85 "Hg10 mi
7:53 PM44 °FClear.9 mph47%29.83 "Hg10 mi
6:53 PM47 °FClear.14 mph41%29.82 "Hg10 mi
5:53 PM50 °FClear.12 mph30%29.78 "Hg10 mi
4:53 PM53 °FSunny.13 mph24%29.75 "Hg10 mi
3:53 PM55 °FSunny.13 mph24%29.73 "Hg10 mi
2:53 PM54 °FSunny.8 mph31%29.72 "Hg10 mi
1:53 PM53 °FSunny.13 mph39%29.71 "Hg10 mi
12:53 PM51 °FPassing clouds.8 mph59%29.71 "Hg10 mi
11:53 AM48 °FPassing clouds.5 mph74%29.73 "Hg10 mi
10:53 AM43 °FLow clouds.6 mph93%29.73 "Hg7 mi
9:53 AM41 °FLight rain. Fog.5 mph93%29.70 "Hg3 mi
Weather by CustomWeather, © 2014

See weather overviewHow to use our weather pages